Weather Service Report


947 
ASUS41 KPHI 292112
RWRPHI

REGIONAL WEATHER ROUNDUP
NATIONAL WEATHER SERVICE MOUNT HOLLY NJ
500 PM EDT MON AUG 29 2016

NOTE:  "FAIR" INDICATES FEW OR NO CLOUDS BELOW 12,000 FEET WITH NO
SIGNIFICANT WEATHER AND/OR OBSTRUCTIONS TO VISIBILITY.

 * = STATION DOES NOT REPORT PRECIPITATION (E.G. RAIN, SNOW, ETC.) 
        OR FOG.

NJZ015>026-292200-
SOUTHERN NEW JERSEY
  
CITY           SKY/WX    TMP DP  RH WIND       PRES   REMARKS
POMONA         MOSUNNY   93  68  43 W9        30.04F HX  97           
WILDWOOD*        N/A     86  70  58 W6        30.07F HX  90           
MILLVILLE      SUNNY     89  73  59 W12       30.06F HX  97           
WRIGHTSTOWN    SUNNY     91  64  41 N8        30.02F HX  92           
MOUNT HOLLY    MOSUNNY   93  60  33 N6        30.04F HX  93           
TRENTON        SUNNY     91  59  33 N10       30.06S HX  90           

$$
NJZ001>014-292200-
NORTHERN NEW JERSEY
  
CITY           SKY/WX    TMP DP  RH WIND       PRES   REMARKS
SUSSEX         SUNNY     84  60  44 NW8       30.12S                  
ANDOVER*         N/A     84  60  44 N7        30.12S                  
MORRISTOWN     SUNNY     86  61  42 N8G17     30.08F                  
NEWARK         MOSUNNY   90  58  33 N14G22    30.06S                  
TETERBORO      SUNNY     88  58  36 NW15      30.05S                  
CALDWELL       SUNNY     88  59  37 NW7G16    30.08S                  
SOMERVILLE     SUNNY     89  60  37 N9        30.06S                  
ALLAIRE*       SUNNY     93  64  38 W10       30.06S HX  94           
TOMS RIVER*    MOSUNNY   92  65  40 NW7       30.05S HX  94           

$$
PAZ043-044-047-054-055-060>062-066>071-292200-
EASTERN PENNSYLVANIA
  
CITY           SKY/WX    TMP DP  RH WIND       PRES   REMARKS
PHILADELPHIA   MOSUNNY   93  62  35 N10       30.05F HX  93           
NORTH PHILA    SUNNY     93  61  34 N13       30.07S HX  93           
BLUE BELL*     SUNNY     88  59  37 NW7       30.07S                  
DOYLESTOWN     SUNNY     92  61  35 N8        30.08F HX  92           
QUAKERTOWN*    SUNNY     88  59  37 CALM      30.11S                  
POTTSTOWN      MOSUNNY   88  62  41 W5        30.10F                  
LANCASTER      SUNNY     89  64  43 N10       30.10F HX  90           
COATESVILLE    SUNNY     88  63  42 N7        30.11F                  
READING        SUNNY     88  61  40 NW12      30.09S                  
ALLENTOWN      SUNNY     88  59  37 N9        30.11S                  
MOUNT POCONO   SUNNY     77  57  50 NW10G18   30.19F                  
WILKES BARRE   MOSUNNY   83  60  45 NW12      30.15F                  

$$
DEZALL-MDZ008-012-015-019-020-292200-
DELAWARE AND EASTERN MARYLAND
  
CITY           SKY/WX    TMP DP  RH WIND       PRES   REMARKS
WILMINGTON     MOSUNNY   93  66  40 NW9       30.06F HX  96           
DOVER          MOSUNNY   89  74  62 VRB2      30.05F HX  97           
GEORGETOWN     SUNNY     90  70  51 VRB3      30.07F HX  95           
EASTON         MOSUNNY   90  73  58 N5        30.11F HX  98           
ABERDEEN       MOSUNNY   88  72  58 CALM      30.06F HX  94           
PATUXENT       MOSUNNY   88  68  51 NE7       30.07F HX  91           
OCEAN CITY     SUNNY     83  64  52 SE6       30.08F                  
WALLOPS ISLAND SUNNY     86  68  54 SE8       30.08F                  
CAMBRIDGE      SUNNY     86  68  54 N6        30.07F                  
SALISBURY      SUNNY     90  68  48 N5        30.06F HX  94           

$$
PAZ001-021-NYZ056-072-MDZ011-DCZ001-292200-
OTHER NEARBY LOCATIONS
  
CITY           SKY/WX    TMP DP  RH WIND       PRES   REMARKS
HARRISBURG     MOSUNNY   90  62  39 N7        30.09F HX  90           
STATE COLLEGE  SUNNY     84  61  45 W6        30.17F                  
WILLIAMSPORT   MOSUNNY   86  58  38 NW5       30.13S                  
BINGHAMTON     SUNNY     76  57  51 NW8       30.20F                  
NEW YORK CITY  SUNNY     88  59  37 VRB5      30.09S                  
BALTIMORE      PTSUNNY   91  68  46 VRB3      30.07F HX  95           
WASHINGTON DC  PTSUNNY   93  69  45 NE7       30.07F HX  98           

$$
  

Return to Home page


Western Regional Climate Center, wrcc@dri.edu